Simultaneous Nadir Overpasses (SNOs) Predictions

Prediction of SNOs between AQUA and METOP-B Satellite Orbit:

Table of predicted SNOs for the next 14.0 days since TLE Epoch: 8/28/2021
Index Date (AQUA) Time (AQUA) Lat,Lon (AQUA) SZA (AQUA ) Date (METOP-B) Time (METOP-B) Lat,Lon (METOP-B) SZA (METOP-B ) Distance(km) Time Diff (sec)
1 08/29/2021 10:03:09 -73.73,-156.37 115.47 08/29/2021 10:02:11 -73.74,-156.33 115.46 1.87 58
2 08/29/2021 10:52:38 73.81, 11.08 64.63 08/29/2021 10:52:50 73.80, 11.13 64.61 2.08 12
3 08/29/2021 11:42:13 -74.29, 177.63 114.85 08/29/2021 11:43:21 -74.31, 179.73 114.90 63.21 68
4 09/01/2021 05:37:24 -73.71, -89.91 114.48 09/01/2021 05:36:33 -73.72, -89.97 114.47 2.07 51
5 09/01/2021 06:26:53 73.80, 77.53 65.63 09/01/2021 06:27:11 73.82, 77.60 65.64 3.04 18
6 09/01/2021 07:16:33 -74.53,-116.52 113.58 09/01/2021 07:17:38 -74.53,-113.28 113.68 96.02 65
7 09/04/2021 01:11:41 -73.76, -23.57 113.41 09/04/2021 01:10:55 -73.75, -23.50 113.42 2.70 46
8 09/04/2021 02:01:09 73.80, 143.97 66.65 09/04/2021 02:01:34 73.80, 143.95 66.64 1.05 25
9 09/06/2021 20:45:57 -73.76, 42.86 112.37 09/06/2021 20:45:17 -73.77, 42.97 112.36 3.89 40
10 09/06/2021 21:35:25 73.81,-149.61 67.70 09/06/2021 21:35:56 73.82,-149.59 67.70 0.83 31
11 09/09/2021 16:20:12 -73.77, 109.27 111.31 09/09/2021 16:19:39 -73.75, 109.32 111.33 2.93 33
12 09/09/2021 17:09:40 73.83, -83.21 68.77 09/09/2021 17:10:17 73.83, -83.14 68.77 2.35 37



Historial Predications of SNOs between AQUA and METOP-B
